Wind_Speed
5 6 6 4 2 1 1 1 1 1 1 1 1 2 3 4 4 5 5 4 3 1 3 7 8 8 11 9 8 12 12 3 4 4 3 7 23 26 21 23 23 21 21 18 16 15 15 15 14 15 15 15 14 14 13 12 12 11 12 12 13 14 13 13 13 13 14 14 14 14 14 14 14 14 14 15 18 19 19 18 18 18 17 17 17 17 17 17 16 16 16 16 16 15 16 16 16
6 5 3 2 1 1 0 0 1 1 2 2 1 1 4 2 6 5 5 3 4 4 4 8 10 13 16 12 10 16 15 8 10 9 7 20 25 22 24 24 23 24 22 19 16 15 14 13 13 14 13 14 13 13 13 11 11 11 11 11 12 13 13 12 11 12 13 14 14 13 14 14 14 14 14 15 19 20 19 18 18 17 17 16 16 16 16 16 15 16 16 15 15 15 15 15 15
5 2 1 3 1 0 1 1 1 1 2 2 1 3 2 4 6 5 5 6 6 6 6 11 10 10 15 16 13 14 9 7 15 13 10 23 19 19 26 22 24 25 22 20 17 15 15 13 13 13 13 14 13 13 13 11 11 11 11 11 11 12 13 12 11 12 13 13 13 13 13 14 14 14 14 16 19 19 18 17 17 17 16 16 16 16 16 15 15 16 15 15 15 14 15 15 15
4 3 2 2 0 1 0 1 1 1 2 1 1 3 2 5 6 6 7 7 5 3 6 11 9 8 15 18 11 12 9 6 14 13 10 19 19 24 27 23 25 23 20 19 17 16 14 13 13 13 14 14 13 12 11 11 11 11 11 11 11 11 12 12 11 11 12 12 13 13 12 13 14 14 14 16 18 18 17 16 16 17 16 16 16 15 14 15 15 16 15 15 15 15 15 15 14
5 1 1 3 1 1 0 1 1 1 1 1 1 2 4 6 6 7 7 6 5 6 9 10 9 9 13 13 7 7 8 8 13 16 16 21 26 29 27 24 24 21 19 17 18 16 14 13 12 13 13 12 12 11 10 10 9 10 10 10 11 11 11 11 11 11 12 12 12 12 12 13 14 14 14 15 17 17 15 16 17 16 16 16 15 14 14 15 16 16 15 15 15 15 15 14 14
5 1 2 4 1 1 0 1 0 1 1 3 1 3 5 6 5 7 6 7 9 11 11 11 11 12 11 9 8 8 11 11 13 17 22 26 29 29 27 26 24 22 20 17 18 16 14 13 12 12 11 11 10 10 10 9 9 9 10 10 10 10 11 11 11 12 11 11 12 12 12 13 13 13 14 14 15 16 16 17 17 16 16 15 14 15 15 16 16 16 15 14 15 14 14 14 13
6 2 3 3 1 0 1 1 1 0 1 3 3 3 5 6 5 6 7 9 11 11 12 12 13 13 10 8 9 12 17 17 16 19 25 29 29 29 27 25 25 23 20 19 19 16 15 13 12 12 10 10 10 10 10 9 10 10 10 10 10 11 11 11 11 12 11 11 12 12 13 13 12 12 13 14 15 17 17 17 17 15 15 15 15 15 16 16 16 16 14 13 14 14 13 13 13
4 2 0 1 1 0 1 1 1 1 1 4 4 4 4 5 3 4 7 7 7 8 11 13 14 13 11 9 8 12 22 23 23 27 30 30 29 29 27 25 25 22 19 20 19 17 15 14 13 12 11 11 10 10 9 10 10 10 10 10 10 11 11 11 11 11 11 11 12 12 13 13 13 12 12 13 14 16 16 16 16 14 14 14 15 15 15 16 15 15 14 13 14 14 13 13 13
2 3 1 0 1 1 1 1 1 1 1 4 5 5 3 6 3 4 6 6 8 10 14 14 12 14 13 13 10 11 22 28 30 31 30 29 30 29 26 25 26 23 21 20 19 17 16 14 13 12 12 11 10 10 10 10 10 10 11 10 11 11 11 11 11 11 11 10 11 11 11 12 12 12 12 12 14 15 15 15 15 14 13 14 14 14 14 14 14 14 13 13 13 14 14 14 14
3 3 1 1 1 1 1 1 1 1 1 3 5 4 5 6 3 3 5 6 9 11 16 15 13 16 14 12 10 11 22 29 29 28 28 28 28 27 25 24 24 23 22 20 19 17 15 14 13 13 12 11 11 10 10 10 10 10 11 11 11 12 11 11 11 12 11 11 11 12 12 11 11 12 11 12 13 14 14 15 15 13 13 14 14 13 13 13 13 13 13 12 13 14 14 14 14
2 2 1 1 1 2 1 1 2 2 4 5 3 3 5 6 3 3 6 7 10 14 17 15 13 15 15 11 7 16 28 29 27 27 27 27 26 25 25 24 21 21 21 20 18 17 14 13 13 13 12 11 11 11 11 10 10 10 10 11 12 12 12 11 12 12 12 12 13 13 14 14 12 12 11 12 13 14 15 15 16 13 13 14 14 14 13 13 13 13 12 11 12 13 13 13 13
1 1 1 1 2 2 1 1 2 3 5 4 3 4 3 5 4 3 7 9 11 14 13 11 11 12 13 10 7 19 28 26 27 28 27 27 26 25 26 24 21 20 20 19 18 17 14 13 13 12 11 11 11 11 11 10 10 10 10 11 11 12 12 12 12 12 13 12 13 14 14 15 14 13 13 13 13 15 15 16 16 14 14 14 13 13 13 12 12 13 12 11 12 12 12 11 12
1 3 1 1 1 1 1 2 2 2 3 2 2 7 6 5 4 3 4 7 11 11 12 11 13 12 11 9 8 15 20 24 27 28 30 29 27 26 25 23 22 19 17 18 17 16 14 13 13 13 12 11 11 11 10 10 11 11 10 10 11 12 12 13 13 13 13 14 14 14 15 15 15 15 15 14 14 15 16 17 16 14 14 13 13 13 12 12 12 12 11 11 12 12 12 12 12
3 1 2 2 1 2 2 3 2 1 1 3 2 5 5 4 2 3 2 3 6 8 15 15 14 13 10 9 8 9 14 24 27 28 32 29 27 26 24 23 21 19 16 16 15 15 13 13 14 14 14 14 13 12 11 10 11 11 10 11 12 12 13 14 14 13 14 16 15 15 17 16 16 15 15 15 15 16 16 17 15 13 13 12 13 12 11 11 12 12 12 12 12 13 14 13 14
4 1 1 1 1 2 1 3 3 3 2 4 1 3 3 3 2 4 1 3 1 7 16 15 13 11 10 10 8 10 18 27 26 29 33 28 27 25 23 22 21 19 17 16 14 14 13 13 14 14 14 14 13 14 13 11 11 11 11 12 12 13 15 15 14 14 16 16 16 17 17 17 17 16 16 16 16 16 16 15 13 12 12 11 11 10 10 11 12 12 13 13 13 14 14 14 15
2 1 2 1 1 2 1 3 4 3 2 3 1 2 1 3 3 2 4 3 2 7 12 11 12 9 11 11 12 21 25 28 27 31 33 29 26 24 22 21 19 17 16 16 14 14 13 13 14 15 15 14 14 15 14 12 12 12 12 12 13 14 16 16 14 15 17 17 17 18 17 17 19 17 17 17 17 16 15 13 13 12 12 10 10 10 11 12 12 12 13 13 13 14 14 15 15
2 2 1 0 1 1 3 5 4 4 3 3 2 3 1 1 2 1 2 1 2 8 9 10 13 11 14 15 21 29 29 29 28 31 32 27 25 22 21 20 18 16 15 14 13 14 13 13 15 16 16 15 16 16 15 13 13 13 13 13 13 15 16 17 16 17 19 17 18 18 17 18 19 18 18 17 17 15 13 13 12 12 11 10 11 11 12 13 12 12 13 14 13 13 13 13 13
2 1 2 2 3 2 4 6 5 4 5 5 4 5 3 2 1 1 1 0 5 7 8 13 16 14 19 24 27 29 29 28 26 30 29 24 21 19 18 18 18 16 14 14 13 14 13 14 16 17 17 15 16 15 15 14 14 14 15 15 15 16 17 18 18 19 19 18 18 19 19 19 19 19 18 18 17 16 14 12 12 11 10 10 12 12 13 13 13 13 14 14 14 12 11 11 10
4 2 3 2 4 2 2 6 6 6 7 7 5 5 3 4 3 1 1 4 7 6 9 15 17 18 21 24 26 26 26 25 24 26 25 23 20 17 17 17 18 17 15 14 13 13 13 14 16 18 17 15 14 15 16 16 16 16 16 16 17 17 17 18 19 19 20 20 19 20 20 19 20 19 19 18 18 16 13 12 11 10 9 11 12 12 13 13 13 13 12 12 11 10 9 10 10
2 0 2 3 5 2 2 6 8 7 9 8 5 3 3 5 3 1 3 6 5 6 12 16 18 19 19 19 23 25 23 23 24 23 21 23 22 18 18 17 17 17 15 15 14 13 13 15 17 18 16 13 15 16 17 16 16 16 16 17 17 17 17 18 19 20 20 20 20 19 19 20 20 19 19 18 18 16 13 13 11 10 11 12 13 13 12 12 11 11 9 8 7 6 6 6 7
0 2 2 4 6 4 2 5 9 9 9 8 5 2 4 4 0 1 2 4 4 6 13 17 20 19 18 17 20 22 21 21 22 21 19 21 23 21 20 19 17 16 15 16 16 15 15 15 17 17 16 14 16 17 17 15 14 15 18 18 17 16 17 18 18 19 19 20 20 20 20 20 20 20 19 18 17 15 14 13 12 12 13 13 13 12 11 10 9 7 5 4 4 3 2 1 2
3 3 1 5 7 5 2 3 10 10 7 7 6 4 4 2 3 3 2 2 3 9 14 17 19 17 18 17 17 19 19 18 18 20 19 19 22 22 22 20 17 16 16 16 17 16 15 15 16 16 17 17 16 15 14 15 14 14 16 16 16 15 16 17 18 18 19 21 21 20 21 20 19 19 17 17 16 14 13 13 13 14 14 14 13 11 9 8 6 4 3 1 1 1 1 2 3
5 2 1 3 6 6 2 3 8 9 7 6 5 4 3 5 2 2 2 2 2 11 16 16 17 18 20 18 17 16 15 15 16 19 19 19 22 23 22 19 18 19 17 16 16 16 16 15 16 16 17 17 16 15 14 16 15 14 15 15 15 15 15 17 18 18 19 20 19 19 20 19 18 16 15 14 14 13 13 14 13 13 14 12 10 8 6 5 4 3 2 1 1 2 3 4 4
6 1 2 6 9 7 4 4 7 8 7 3 3 5 5 6 4 0 2 5 5 10 17 16 17 19 20 16 15 15 14 15 17 20 20 22 25 25 24 21 20 21 19 18 17 16 17 16 17 17 16 16 17 16 15 16 15 15 16 14 16 16 15 15 18 19 18 17 18 20 19 17 16 14 14 14 14 13 12 12 10 10 12 10 8 6 4 4 4 3 3 3 4 3 1 1 5
7 4 5 8 9 7 5 5 7 7 5 2 4 5 4 6 5 2 4 6 4 10 17 16 16 17 16 14 15 14 14 16 19 20 19 23 28 26 26 24 22 22 21 19 17 17 17 17 18 18 17 17 18 16 14 15 15 16 17 16 18 18 16 16 18 19 18 17 19 19 16 14 14 14 15 15 14 12 9 9 8 8 8 7 6 4 2 3 3 3 4 5 7 4 3 4 7
7 9 8 8 9 7 5 4 6 6 2 3 5 5 4 3 4 2 5 6 3 11 17 15 16 15 14 14 14 13 12 15 19 20 18 24 30 27 25 24 23 24 21 18 18 18 17 19 20 18 18 18 19 17 15 15 15 17 19 20 20 18 16 18 19 19 18 16 16 15 12 12 13 14 15 14 12 10 10 10 9 7 4 3 3 1 1 3 3 4 6 6 7 4 5 6 4
10 13 11 9 9 7 4 4 6 5 3 3 5 4 2 1 1 2 5 7 4 13 17 15 15 14 14 13 12 12 13 15 19 20 19 24 28 26 25 23 23 24 22 20 19 18 19 20 20 18 19 20 20 17 15 16 18 20 21 21 20 18 17 18 18 18 18 16 15 13 12 12 12 14 14 12 11 10 12 12 9 7 5 3 2 2 1 2 3 5 5 3 4 4 2 6 5
15 16 14 10 8 7 6 5 4 3 3 2 4 5 2 2 1 4 6 7 6 14 16 14 14 12 13 13 11 10 12 15 20 20 18 21 25 26 25 24 24 24 22 21 20 19 19 18 18 18 20 21 20 17 16 17 19 21 21 19 17 17 17 17 16 16 17 16 15 15 14 13 11 12 12 12 11 11 11 10 8 6 6 4 1 2 0 1 2 3 1 2 3 3 3 3 3
16 15 13 8 6 7 5 4 3 3 0 2 3 5 3 2 3 7 7 6 8 14 13 13 13 11 12 11 9 8 10 15 18 17 17 20 24 26 25 25 26 24 22 22 20 20 20 17 17 18 21 22 21 18 16 18 19 20 20 16 15 17 18 16 14 14 15 16 15 15 15 14 11 11 11 10 10 9 8 7 7 6 5 5 3 2 1 1 2 0 1 1 2 3 6 3 4
14 12 10 7 4 4 1 2 3 4 3 5 3 4 1 4 2 5 5 6 11 13 11 11 10 10 11 8 7 7 10 13 14 17 20 20 25 26 25 27 27 25 24 23 20 21 21 18 18 18 20 22 21 19 18 17 18 19 18 16 16 18 17 16 14 13 14 14 14 14 13 12 11 11 9 9 10 9 8 7 8 6 5 6 4 3 2 2 2 1 1 1 1 4 5 2 5
10 10 6 5 4 2 2 2 2 1 2 7 5 3 3 5 4 5 3 6 11 11 10 10 9 9 9 7 7 8 8 12 15 20 20 19 25 28 27 26 26 27 27 24 22 21 21 20 19 20 20 20 21 20 19 19 19 18 18 17 18 17 15 16 15 14 14 14 14 14 12 11 11 11 8 8 8 7 7 7 8 7 5 5 5 4 3 3 3 2 1 1 1 3 3 2 4
8 7 4 4 4 3 3 4 5 4 2 3 4 3 2 4 5 6 4 4 8 9 9 10 11 10 10 7 8 8 7 12 18 21 19 18 23 28 29 26 26 30 28 26 25 22 20 19 19 20 19 19 20 19 19 20 20 18 17 16 16 16 15 16 16 15 15 16 15 15 14 13 13 12 10 8 7 7 7 7 8 7 5 5 6 5 4 4 3 3 2 1 1 2 3 4 3
5 4 5 6 5 5 3 4 7 6 4 2 2 2 3 4 5 6 5 1 4 6 7 10 12 12 10 8 8 9 6 9 15 18 18 18 23 28 30 27 27 30 28 28 28 24 21 19 18 19 19 18 19 18 17 19 19 18 16 15 15 16 15 16 16 14 15 15 15 14 13 14 13 11 10 9 9 9 8 9 9 8 6 5 6 5 5 3 1 2 3 3 3 2 3 5 4
5 4 4 6 5 5 4 2 4 4 4 4 2 2 3 2 4 4 5 3 3 4 6 8 10 11 9 7 9 10 7 6 10 14 18 19 25 28 29 27 28 28 27 28 27 26 24 21 20 20 19 18 18 18 18 19 19 17 17 16 17 17 16 17 18 15 15 14 13 14 12 12 12 10 9 9 10 9 8 8 7 7 6 5 5 5 6 3 3 3 2 2 3 3 4 6 5
4 5 4 6 4 2 3 4 5 6 5 5 3 2 3 4 4 2 4 4 4 4 6 6 8 10 9 8 9 9 8 7 9 15 18 21 26 28 27 28 29 27 25 26 26 27 26 23 22 21 19 17 17 18 20 20 17 16 16 16 17 17 16 18 18 17 15 12 12 14 12 11 11 10 10 11 11 10 9 7 5 5 5 4 3 4 5 4 4 3 2 2 3 3 5 7 7
3 9 7 8 6 2 5 5 5 8 6 5 6 4 4 5 5 2 4 4 2 3 5 5 6 9 9 7 9 10 9 7 12 18 18 22 27 27 26 27 28 26 24 26 26 26 27 26 24 21 19 18 18 18 20 19 15 14 16 15 16 17 16 17 17 17 14 10 12 13 12 12 11 11 11 11 11 10 9 6 4 5 4 3 2 3 3 4 4 3 3 4 5 4 5 6 7
2 11 8 9 8 5 6 4 5 4 3 3 3 2 5 6 6 5 3 4 2 2 3 5 5 7 8 8 10 11 9 8 15 20 19 25 28 26 27 26 26 27 25 25 26 27 28 28 26 22 21 20 20 19 19 18 16 15 17 15 15 16 15 16 16 16 13 11 12 13 12 12 11 11 9 10 10 9 8 6 4 4 3 3 4 4 3 3 2 3 4 5 5 7 9 8 4
2 10 8 8 7 4 5 6 6 4 3 2 1 1 5 5 6 4 1 3 4 3 3 6 6 7 7 8 11 11 8 9 14 16 18 25 26 25 27 25 26 28 26 25 26 28 28 27 26 24 22 20 20 20 19 17 16 16 17 15 15 17 15 15 16 15 13 11 11 11 11 11 11 10 9 9 8 8 8 6 4 4 3 4 3 3 3 2 2 3 3 4 6 9 10 7 4
3 7 6 6 6 6 7 6 8 6 2 2 1 2 3 1 2 3 0 2 2 3 4 3 4 6 7 7 10 11 9 10 11 12 16 24 25 26 25 23 26 29 26 26 26 27 26 26 26 24 23 21 21 20 18 17 17 16 16 15 15 17 16 15 15 15 13 12 11 10 10 11 11 9 9 8 7 6 7 6 4 4 4 3 2 2 1 0 2 3 5 6 8 10 11 6 3
5 7 5 5 7 6 5 4 8 6 2 4 7 2 2 3 4 2 0 2 2 3 8 7 2 3 6 7 8 9 10 11 11 11 14 21 25 25 23 23 26 27 25 26 27 25 26 26 26 24 23 22 21 19 17 18 18 16 17 16 15 16 15 15 15 14 14 13 13 11 10 10 10 9 8 8 5 4 5 6 5 4 4 2 3 3 1 1 1 3 5 7 9 11 14 10 3
8 11 6 7 10 7 7 9 10 6 2 4 8 4 1 3 3 4 2 0 1 1 6 10 5 3 2 5 7 8 9 10 11 11 12 18 22 23 23 23 26 25 24 26 27 25 25 27 26 24 23 22 20 18 18 19 18 17 19 18 17 17 16 16 17 15 14 14 13 13 12 11 10 8 8 6 4 4 6 6 5 5 4 3 3 2 1 1 1 2 4 6 7 9 14 14 7
5 9 10 12 14 10 14 15 11 6 1 4 6 3 2 3 5 7 3 1 3 2 4 12 7 3 4 2 7 7 8 10 10 10 12 17 21 23 24 24 25 24 24 25 26 25 25 27 26 24 24 22 20 19 18 18 18 18 20 19 18 19 18 17 18 17 16 14 12 11 11 12 10 9 9 7 5 5 6 5 5 5 4 3 2 1 1 1 1 2 4 5 5 7 11 14 13
3 8 12 15 15 14 17 16 9 4 2 6 6 2 0 2 5 7 4 4 6 5 8 13 8 3 4 2 6 7 7 9 10 9 12 17 21 23 24 24 25 24 25 26 24 24 26 27 26 25 24 23 21 20 18 18 18 18 19 20 18 19 18 16 16 16 15 14 12 10 10 12 11 9 9 8 6 5 6 5 5 5 3 2 1 1 0 0 1 3 3 4 3 6 8 11 14
1 4 9 17 17 15 18 15 7 4 4 5 7 4 2 3 5 6 7 7 8 8 11 12 9 6 5 4 5 7 7 7 9 9 10 16 21 23 24 25 25 24 26 27 25 26 27 27 26 25 24 24 22 21 19 19 19 18 19 20 17 17 17 16 15 15 15 14 13 12 10 11 11 9 9 8 6 5 6 6 5 4 3 2 2 1 0 1 1 2 2 3 2 5 7 9 12
4 4 6 18 17 14 16 12 6 7 7 4 7 7 3 2 3 6 8 9 11 13 14 13 11 9 7 6 5 7 8 7 8 9 9 15 21 24 25 26 25 25 26 27 27 28 28 27 26 24 24 25 23 22 21 20 19 18 19 19 17 15 16 16 15 15 14 13 14 14 12 11 11 9 9 8 7 6 6 6 6 6 4 3 2 2 1 3 3 2 1 2 2 4 5 7 9
6 7 5 14 14 13 14 9 6 7 5 5 12 11 4 1 4 6 7 9 12 14 14 13 12 11 9 7 6 6 8 7 8 9 9 17 24 25 26 26 24 26 26 25 28 30 29 29 26 24 24 24 23 22 22 20 20 18 18 19 18 16 16 15 14 15 14 12 13 15 13 12 12 10 10 10 9 8 7 6 6 7 6 3 2 1 1 3 3 2 1 2 3 3 3 4 5
8 6 6 10 10 10 8 5 5 5 2 6 15 16 7 2 4 7 9 12 14 13 11 12 13 13 11 9 7 6 7 7 7 8 9 17 25 26 26 26 25 26 26 26 29 29 29 29 27 25 24 24 23 23 22 21 21 20 18 18 18 17 17 16 15 15 15 15 14 13 12 13 12 10 10 10 10 9 8 7 6 6 5 4 2 1 1 1 1 2 2 2 3 3 1 1 3
8 4 5 7 7 5 4 3 5 2 4 6 16 19 11 3 4 9 13 13 13 14 13 15 17 15 13 11 9 7 6 7 7 6 8 13 20 23 25 25 25 27 25 26 30 29 29 29 28 26 25 24 24 23 22 21 21 21 19 18 18 17 18 17 17 16 15 16 16 14 13 14 13 12 11 10 9 9 9 8 7 5 5 5 5 3 2 3 2 2 4 2 2 3 2 1 3
5 4 2 4 3 2 3 3 3 4 4 5 16 17 8 4 4 11 17 14 12 14 14 16 17 16 14 12 10 7 5 7 8 7 7 9 12 17 23 23 24 27 25 27 31 29 28 29 28 27 26 26 26 24 22 21 21 21 19 18 19 18 18 18 18 16 15 16 15 15 14 14 14 13 12 12 10 9 10 9 7 7 7 6 7 5 4 4 3 3 4 4 2 1 2 1 3
5 4 2 4 3 1 2 3 3 4 5 5 18 15 4 3 4 9 17 15 12 13 11 13 15 16 16 13 11 9 6 6 8 8 6 7 11 16 21 21 22 27 27 28 30 29 28 28 28 29 27 27 27 25 23 21 21 20 18 18 19 20 19 18 17 17 16 15 14 14 14 14 15 13 12 12 10 8 10 11 8 7 7 7 8 7 5 5 4 4 5 5 3 3 2 2 3
5 4 2 4 3 2 2 3 2 3 4 5 15 10 1 1 3 4 9 10 9 9 9 11 12 12 14 14 12 10 8 6 6 7 3 4 12 18 21 20 21 26 27 29 30 29 29 28 28 29 28 27 28 26 24 22 21 21 19 18 20 20 19 17 17 17 16 16 14 13 13 13 13 13 12 12 10 9 12 12 9 9 9 8 9 9 8 7 5 5 6 5 3 4 5 4 3
4 2 2 2 3 3 2 3 3 2 1 3 7 3 2 1 4 7 5 7 7 7 7 10 12 12 12 13 13 12 10 5 5 7 4 3 12 19 19 18 21 26 27 28 31 30 29 29 28 28 28 28 28 27 26 23 21 21 20 19 20 20 19 17 17 17 16 15 14 13 13 13 12 12 12 12 11 10 12 12 10 9 10 10 9 10 9 7 6 6 7 7 5 4 5 5 5
3 1 2 4 3 2 1 3 6 3 2 1 4 3 2 1 3 8 6 5 6 6 6 8 11 13 13 12 13 12 10 7 5 7 7 5 11 18 20 18 18 23 26 29 31 31 31 30 29 28 27 28 28 27 26 25 22 21 20 20 20 20 20 17 16 17 15 15 15 14 13 12 12 13 12 12 12 10 10 11 10 8 9 10 9 9 9 8 7 6 7 8 7 5 5 6 5
3 1 4 4 4 3 1 1 4 3 1 2 6 8 2 1 1 3 3 3 6 5 5 6 7 11 13 11 11 11 9 8 7 6 7 7 9 12 19 23 22 24 27 30 32 31 32 32 30 29 27 27 27 26 26 25 23 22 21 21 21 21 20 18 17 16 15 16 16 14 13 12 12 12 11 12 13 11 10 11 10 8 9 11 10 8 8 9 9 9 8 7 6 6 7 7 6
5 4 3 3 3 3 1 2 1 1 3 2 6 9 5 3 3 3 4 6 7 6 7 8 7 9 12 10 11 11 9 8 8 7 6 7 7 7 11 19 21 26 30 32 32 31 31 31 30 29 27 27 27 25 25 24 22 22 22 21 21 21 20 19 18 17 16 16 17 15 13 13 12 12 12 13 13 12 12 12 11 9 10 11 11 9 9 9 10 10 9 7 7 7 8 8 6
5 6 5 2 2 3 3 3 3 2 3 1 4 4 2 1 2 6 9 9 9 9 9 10 10 10 10 9 10 10 9 7 8 8 6 8 13 15 17 20 18 24 30 32 31 30 30 30 30 29 26 25 25 23 23 23 22 21 22 21 21 21 20 19 19 18 17 16 15 15 14 13 13 13 13 13 13 13 13 13 13 12 11 11 11 11 11 10 10 10 10 9 8 8 9 9 7
4 3 4 4 2 3 4 3 3 3 3 2 3 1 1 3 3 5 9 6 6 8 7 7 8 11 11 10 11 10 9 7 6 7 6 9 18 24 25 24 19 24 28 29 28 29 30 29 29 28 26 25 25 24 23 23 22 21 21 20 20 20 19 19 19 18 17 15 14 15 15 13 13 14 13 12 12 13 14 13 14 14 12 12 12 12 12 12 11 11 10 10 10 9 9 10 9
3 3 4 5 3 3 2 3 4 4 3 3 5 3 2 4 3 5 7 3 2 3 5 4 6 10 11 11 11 11 10 8 6 6 5 7 17 23 24 24 23 26 30 27 26 27 28 28 28 27 26 25 24 23 23 24 23 22 22 21 20 20 19 18 18 18 17 17 15 15 14 13 13 14 12 11 12 13 14 14 13 13 13 13 14 13 12 13 13 12 11 11 12 11 11 11 11
Wind_Direction
156 162 156 125 116 177 261 203 111 32 103 46 81 83 254 222 94 89 95 77 68 66 67 88 94 85 91 101 104 61 34 75 133 124 136 139 149 155 150 146 147 144 142 138 136 132 127 124 125 124 122 123 122 120 117 114 113 113 113 112 114 117 117 118 121 120 120 120 121 125 128 129 125 122 119 120 124 127 125 120 116 113 112 111 110 109 106 103 102 100 100 100 100 101 101 103 103
146 134 140 135 188 218 228 193 90 27 68 54 11 204 236 153 97 124 138 122 100 112 95 88 85 82 90 91 81 64 37 21 93 99 105 129 143 152 145 143 145 144 141 140 139 135 131 133 130 125 127 128 126 125 122 121 121 120 119 119 121 123 124 126 131 129 126 125 125 128 132 131 126 124 122 122 125 126 125 121 119 115 113 113 113 110 107 105 104 104 102 102 102 102 103 104 104
129 69 196 183 169 142 178 90 92 30 48 75 290 255 230 114 126 156 143 121 123 149 114 80 70 75 81 70 59 74 68 33 90 98 112 131 141 147 143 141 143 141 140 141 140 139 137 137 134 132 134 131 133 133 127 129 129 127 125 122 123 125 130 134 138 135 131 131 131 130 132 133 127 124 123 123 125 127 125 120 118 116 115 115 114 111 109 110 109 108 106 105 105 105 106 106 107
139 350 323 160 73 17 58 62 87 68 71 121 230 241 187 119 136 134 125 127 135 145 96 84 75 75 81 85 85 85 90 68 93 104 121 137 141 143 141 139 139 135 137 142 143 143 142 139 138 136 132 129 133 131 125 130 131 130 128 124 122 123 130 137 140 136 132 133 133 133 135 134 127 122 121 124 126 128 124 118 115 116 118 117 113 111 110 113 112 110 109 108 108 108 108 109 109
143 349 2 115 120 326 13 55 55 90 136 133 29 244 148 123 131 127 133 131 106 78 85 91 84 81 80 90 101 92 110 107 105 112 121 134 138 139 139 138 136 134 139 147 147 145 144 141 138 132 126 125 128 125 125 129 129 127 126 126 126 127 133 140 142 135 133 136 137 137 138 133 126 123 122 125 128 127 123 117 115 115 118 116 113 112 110 112 113 112 111 110 109 109 110 112 112
148 226 47 83 112 217 105 71 148 204 150 125 163 247 135 128 142 134 134 105 78 70 79 87 92 92 84 85 87 107 130 121 115 118 122 131 138 139 138 138 137 138 145 151 148 144 143 141 134 128 122 122 125 129 133 134 134 132 131 132 133 135 140 145 144 137 136 139 141 140 139 133 126 125 125 127 130 129 126 120 117 117 118 118 116 113 111 112 113 112 111 110 110 110 111 114 115
152 172 29 49 102 114 90 78 219 140 76 151 221 239 137 137 154 128 105 89 78 78 87 95 106 101 92 98 89 103 117 117 121 123 126 132 136 137 136 136 137 139 146 149 145 143 143 141 134 130 129 131 135 139 141 141 144 145 144 143 143 144 144 148 146 141 139 139 141 141 139 133 127 127 127 130 132 132 128 122 120 119 119 119 116 113 111 112 111 111 111 111 111 111 113 116 118
144 99 320 47 109 73 114 100 240 108 132 200 241 248 156 128 129 100 98 102 103 107 104 101 104 97 92 98 93 105 109 111 121 125 127 129 132 134 134 133 133 136 143 145 143 144 144 142 139 139 142 142 144 145 144 144 146 149 149 151 151 146 145 149 149 148 144 140 139 141 141 136 130 128 129 133 133 132 128 126 126 122 118 117 115 113 112 112 111 112 114 114 113 114 115 118 120
99 36 216 89 74 4 101 97 155 131 186 215 248 243 154 96 65 85 112 118 116 115 107 104 103 100 99 97 99 106 104 111 121 125 126 127 131 133 133 134 134 136 142 145 145 146 145 144 143 143 145 145 147 145 144 144 143 144 145 152 150 143 145 148 148 149 146 142 138 136 136 135 132 131 132 133 132 133 131 132 131 124 118 116 116 116 114 113 115 116 118 117 115 116 116 118 121
33 25 343 342 61 7 46 40 54 30 283 271 263 203 122 104 95 95 117 116 113 107 99 97 97 104 110 103 102 112 113 119 123 124 128 130 134 134 132 134 137 140 144 146 146 146 143 144 143 144 144 143 144 142 142 140 139 141 142 145 143 143 145 145 144 143 144 141 133 128 130 131 131 133 133 130 130 133 133 133 131 127 122 119 118 117 116 117 119 120 120 121 118 117 117 118 123
14 27 338 328 46 26 42 19 38 336 329 318 302 119 110 120 119 97 100 95 99 102 103 101 101 107 110 104 102 121 124 127 128 129 132 132 132 130 128 130 133 139 144 145 145 142 139 141 141 142 142 140 140 138 138 137 138 138 137 138 137 141 143 143 141 137 141 142 134 131 135 135 135 136 131 128 130 132 133 134 130 128 125 120 118 117 118 120 120 120 122 123 121 118 117 121 126
25 117 291 345 21 33 56 52 80 342 345 339 337 355 6 91 76 78 97 100 111 114 115 114 115 115 111 109 117 128 129 130 134 134 132 130 126 124 126 128 129 136 143 144 142 140 141 142 138 138 137 136 135 133 134 135 133 127 128 131 133 136 137 140 139 139 142 141 137 135 137 138 140 139 133 130 130 130 132 134 131 129 124 119 119 120 121 121 120 121 123 123 120 118 118 123 129
208 160 171 56 17 76 82 90 84 17 346 291 270 313 333 65 61 56 76 111 123 121 115 113 120 121 114 117 130 131 129 133 138 134 128 125 123 122 123 124 126 131 139 141 139 139 143 141 138 135 130 127 126 127 129 129 127 127 129 131 133 132 133 136 136 140 138 134 136 136 138 139 139 137 132 130 130 131 133 135 133 128 124 123 123 123 122 122 122 122 122 121 119 117 116 119 127
174 173 151 115 90 96 90 103 123 151 279 260 218 298 337 55 79 68 7 83 95 121 120 123 127 119 119 130 133 130 133 138 137 129 125 123 123 122 121 122 126 131 137 135 132 135 141 140 137 135 130 128 126 123 118 118 123 131 135 131 130 130 131 134 140 140 131 133 138 138 138 139 137 132 129 126 127 130 133 136 132 126 126 128 126 124 124 123 123 124 121 120 117 114 114 118 125
150 330 99 90 54 93 129 123 158 178 212 245 226 307 5 60 107 92 170 134 134 152 123 126 132 123 139 147 134 135 140 137 131 124 123 122 122 121 119 122 128 136 137 130 129 135 139 138 136 133 129 123 119 115 111 113 119 126 131 129 128 129 130 136 144 138 127 132 134 133 135 137 135 131 128 126 127 130 133 134 129 129 130 129 128 126 125 123 123 123 119 117 113 111 112 118 123
143 82 62 10 336 92 194 152 163 186 187 223 245 294 2 61 97 128 191 153 231 149 120 138 140 133 144 141 133 137 138 136 134 126 121 119 119 118 117 118 127 137 138 134 134 135 135 135 133 127 118 110 109 111 112 115 117 122 127 128 129 127 129 135 138 131 128 132 130 129 134 135 132 129 129 128 129 131 133 133 131 133 134 133 133 128 124 122 122 118 114 111 108 110 112 117 118
146 123 97 172 246 125 188 177 171 173 143 175 236 253 189 44 38 197 208 4 244 138 127 148 137 135 134 131 135 136 137 139 139 125 117 118 117 118 118 118 126 134 139 141 137 132 134 134 128 119 112 109 109 110 112 114 117 121 122 124 126 124 127 130 128 125 128 131 130 130 133 132 129 129 131 131 131 131 133 133 135 138 137 137 131 126 124 122 121 116 111 107 106 110 116 119 119
126 134 160 166 230 172 176 183 172 148 138 157 212 242 168 140 255 194 51 29 192 142 128 136 129 127 120 127 133 133 138 141 136 123 120 122 121 124 124 125 130 134 139 143 140 135 135 131 124 119 116 113 111 111 112 115 119 119 118 120 122 121 123 125 126 126 129 131 132 132 133 132 131 133 133 133 132 131 134 135 137 140 139 135 130 128 128 124 121 117 113 110 108 110 118 124 125
179 163 138 187 216 184 189 178 169 153 151 157 188 241 170 163 204 136 107 167 178 149 130 127 120 118 119 129 132 133 140 137 131 127 129 130 130 133 129 132 136 137 141 142 140 138 135 129 125 123 118 115 118 118 115 116 120 118 118 121 122 122 121 125 129 130 131 135 136 134 134 135 135 135 133 134 133 130 134 138 141 142 138 135 131 131 130 126 124 121 118 114 112 113 123 131 129
222 271 125 220 201 164 261 172 168 155 143 148 174 228 165 178 201 142 180 175 187 157 131 124 121 126 131 133 133 139 141 134 134 136 137 133 133 136 135 139 142 144 146 145 144 142 140 132 129 125 117 120 125 123 118 116 117 117 118 121 124 124 123 127 131 132 134 138 139 137 136 137 136 134 134 134 131 132 140 143 142 140 137 135 134 134 132 128 126 123 120 114 110 114 126 138 140
279 279 164 204 179 157 241 162 150 142 137 145 156 161 153 179 58 20 198 180 189 135 125 129 131 135 135 135 140 143 138 138 144 141 138 133 132 137 141 143 144 151 153 147 144 144 144 138 134 128 125 129 124 121 122 120 119 117 116 119 122 121 122 127 131 132 135 138 138 137 137 138 136 136 137 136 135 141 147 143 139 137 135 136 136 134 132 126 121 117 114 112 115 122 124 155 173
114 273 233 187 170 153 232 144 134 133 130 131 130 136 144 111 33 17 43 157 160 119 126 132 131 136 137 140 144 140 140 149 149 138 139 139 134 135 142 143 141 150 155 147 140 140 145 143 137 130 132 132 122 121 126 128 129 123 118 119 122 120 123 128 131 134 136 138 136 137 139 138 138 138 138 139 141 145 144 137 134 135 136 138 136 132 130 121 112 103 98 109 174 194 266 278 280
107 275 265 167 136 128 161 128 125 125 114 122 137 142 117 85 70 359 72 212 219 119 127 130 131 137 138 142 142 142 150 151 142 139 145 143 134 132 139 143 143 149 154 148 142 141 144 146 140 133 136 136 131 130 133 136 136 130 125 124 125 124 125 129 132 132 133 137 139 140 139 137 136 137 139 141 143 141 136 133 132 135 138 138 132 126 118 98 90 76 56 29 304 263 274 281 267
106 128 92 94 93 107 122 104 114 116 108 133 147 123 118 114 118 270 165 237 255 128 126 129 136 137 140 145 144 148 152 146 143 146 149 141 132 133 140 144 147 152 153 148 147 147 146 148 146 141 141 144 142 137 134 136 135 132 130 131 132 130 130 131 134 132 131 140 145 143 138 136 138 140 144 144 141 135 130 131 130 134 140 138 124 109 89 71 71 34 345 320 308 269 245 76 153
107 124 106 92 95 99 91 89 99 103 100 101 104 100 116 133 131 163 210 241 251 137 128 134 140 138 146 148 147 153 152 148 146 149 153 140 132 135 140 142 147 153 153 150 151 152 151 149 149 150 147 146 146 142 136 134 135 135 135 138 133 132 135 133 133 131 131 141 145 142 137 136 143 148 149 146 141 135 134 139 136 133 134 134 120 94 59 37 32 1 328 313 307 273 169 128 146
125 123 106 95 100 98 87 82 84 90 84 76 93 81 62 103 124 167 234 251 231 138 131 141 144 144 154 149 154 158 151 153 149 151 151 132 129 133 138 143 148 153 152 154 157 156 155 149 148 150 146 147 145 141 140 137 138 137 138 138 130 133 142 137 134 133 135 143 147 146 142 144 149 150 151 149 145 145 149 153 156 158 160 147 129 122 322 331 329 326 322 321 313 290 205 201 218
122 110 97 90 91 88 76 70 78 85 76 78 107 97 51 24 117 177 236 259 215 139 135 146 147 150 156 151 160 157 151 159 148 145 141 128 130 135 141 148 151 152 153 158 161 158 155 150 149 148 146 147 143 142 145 143 140 136 135 131 129 138 144 139 138 140 145 150 155 159 155 151 151 153 156 154 150 153 154 152 155 168 196 205 187 222 291 316 323 336 323 312 301 302 248 218 245
120 108 96 85 77 68 49 53 54 50 83 139 128 100 29 316 190 192 217 243 190 138 140 150 151 155 153 154 163 154 154 156 144 140 140 135 137 140 145 149 149 151 155 160 160 155 152 153 156 151 148 148 146 148 149 145 144 141 138 132 132 143 142 138 140 143 150 153 157 161 155 152 159 163 159 152 149 151 151 150 148 156 184 194 173 175 41 297 276 332 275 255 270 295 337 256 279
121 114 103 96 80 66 46 50 2 318 183 198 144 96 15 323 176 192 210 214 157 135 147 154 155 153 146 158 162 148 148 144 138 135 138 139 137 140 142 143 146 147 152 157 156 151 152 161 161 148 145 148 150 153 148 146 148 147 144 137 139 147 144 144 143 140 146 150 154 156 151 152 163 164 153 147 145 145 147 150 153 154 155 140 121 143 130 193 216 42 148 270 262 295 337 325 332
122 115 111 116 92 67 76 59 338 304 357 343 336 107 312 296 210 215 221 171 138 139 156 154 153 147 145 162 150 136 138 136 133 131 140 143 137 138 137 139 147 146 148 153 154 156 159 163 160 150 149 151 152 151 147 145 146 148 146 143 147 147 143 147 147 141 143 146 149 155 154 156 163 161 157 154 146 142 145 143 143 138 131 139 139 139 132 131 148 166 185 322 270 309 340 350 348
128 122 124 134 126 133 150 97 8 295 351 328 326 118 201 269 275 278 278 138 138 151 162 151 149 143 145 156 138 132 134 135 132 133 148 152 141 138 134 138 147 146 147 152 154 159 160 157 155 155 153 151 150 147 143 142 143 146 147 147 150 145 141 149 151 144 143 145 146 152 155 158 161 159 159 160 155 151 146 137 134 132 137 151 150 136 115 92 85 129 195 255 257 296 326 318 343
143 138 154 159 139 136 151 160 180 192 170 281 307 109 169 277 274 289 317 124 143 159 163 152 150 142 145 154 140 135 140 142 133 139 161 158 141 135 132 137 144 146 149 153 154 157 157 154 154 158 155 150 151 148 142 142 144 146 148 153 152 147 147 155 156 148 143 146 149 152 152 153 153 153 155 160 166 168 156 148 142 143 151 144 136 129 111 89 66 79 114 114 317 282 295 314 336
166 171 166 151 138 138 155 184 198 198 143 144 296 129 134 282 259 281 305 187 145 164 169 156 150 143 150 159 144 140 156 151 134 150 170 153 136 132 134 140 143 147 152 153 155 156 156 156 154 155 153 152 153 152 147 142 143 144 145 151 151 149 150 151 153 150 148 151 151 150 150 151 152 154 157 157 158 158 157 159 153 154 166 151 135 125 117 109 74 83 99 81 14 302 285 312 326
190 188 136 103 112 145 150 177 210 203 152 160 236 165 156 202 213 263 288 223 163 182 182 162 150 143 156 162 144 146 159 153 138 162 170 146 136 135 138 143 143 149 154 155 156 155 153 152 151 150 150 152 152 151 149 143 142 142 141 146 149 151 151 149 150 151 153 157 155 151 151 152 153 156 159 156 154 152 155 158 154 161 166 150 137 124 113 98 87 91 82 51 355 305 291 314 324
179 139 105 96 121 183 174 179 185 173 166 177 185 203 177 154 177 268 300 235 186 210 198 170 152 144 159 163 146 147 155 159 153 166 167 145 137 138 140 141 142 148 152 152 153 151 152 151 150 149 149 152 150 148 149 147 146 146 150 152 151 151 150 150 151 150 154 162 163 158 154 152 150 151 152 152 151 148 149 150 146 158 155 138 138 121 103 77 65 61 37 3 337 304 298 313 321
149 118 131 139 145 210 203 180 166 159 158 176 178 191 175 155 176 203 282 262 205 229 214 180 162 149 161 166 148 148 161 168 157 163 160 138 135 139 139 139 141 147 148 148 149 149 151 151 149 150 152 150 145 145 148 150 149 149 156 155 147 149 153 152 149 147 153 167 165 155 152 153 151 146 143 144 149 146 142 142 137 139 133 124 114 99 93 64 37 16 6 347 333 326 333 342 328
129 116 132 134 135 179 186 125 81 116 142 185 179 187 183 169 180 190 243 262 251 278 218 189 182 156 166 169 149 153 170 164 153 161 151 131 136 140 139 141 144 146 147 147 147 147 147 148 150 152 155 152 148 150 152 154 155 153 158 160 152 152 154 157 156 153 158 167 162 155 155 159 155 147 139 136 141 144 143 144 152 143 126 110 83 79 87 59 8 337 340 338 334 335 349 7 357
169 121 128 124 129 143 132 117 114 119 130 159 11 295 202 174 176 190 226 231 225 265 226 197 197 171 172 169 151 156 174 159 151 159 148 136 140 141 141 146 146 143 145 144 143 144 146 148 150 152 154 156 155 154 155 159 161 157 158 161 160 159 157 162 164 161 161 164 161 158 161 165 160 152 145 139 138 146 153 155 167 165 141 124 97 84 78 43 330 333 349 343 351 348 346 3 30
186 119 123 119 124 105 94 125 141 127 109 138 142 244 235 226 200 202 303 266 244 295 294 253 205 184 178 167 156 162 170 160 157 162 151 141 140 141 146 148 144 143 146 147 144 145 149 151 152 154 156 157 158 158 160 162 163 162 161 162 163 165 168 173 167 160 164 167 161 158 166 169 164 160 158 156 150 149 161 165 162 153 137 137 145 139 124 33 315 352 13 357 2 6 358 3 31
158 134 138 138 150 134 113 143 134 108 30 150 149 165 268 301 308 315 330 298 330 332 309 305 279 207 193 174 165 164 164 161 161 162 152 142 141 145 151 147 144 147 149 150 153 152 154 156 156 158 159 160 163 166 165 163 166 166 159 159 163 165 169 172 165 160 167 168 160 162 174 171 163 166 164 160 157 150 170 173 162 154 139 148 168 162 194 222 322 349 23 11 5 8 4 7 29
168 157 151 150 166 157 131 139 129 98 20 145 135 112 223 223 256 251 181 240 299 2 302 290 291 302 257 179 171 166 161 162 163 163 154 144 144 148 151 148 147 153 153 154 158 159 159 160 160 161 162 164 167 167 164 164 168 166 156 150 151 155 159 166 166 163 167 167 165 172 178 168 158 160 157 160 180 167 160 166 168 164 140 143 167 152 209 214 329 348 18 10 7 11 8 15 28
191 174 169 163 166 148 124 129 131 118 190 198 157 125 221 200 212 226 179 152 235 151 243 265 271 296 300 194 177 175 162 164 167 167 155 146 147 150 152 152 152 158 159 158 161 162 162 161 162 164 165 167 167 165 165 166 166 164 161 154 148 148 152 163 170 168 168 170 172 178 175 162 158 165 162 165 193 177 155 153 159 158 137 138 156 95 209 178 79 47 28 358 0 16 14 21 26
207 193 175 157 152 141 132 137 146 146 174 194 181 130 82 231 226 219 175 184 225 190 207 241 245 233 270 237 183 179 172 169 170 172 159 149 149 152 155 156 159 163 163 164 165 164 164 163 165 168 167 167 168 167 168 168 163 161 163 160 154 153 153 158 168 169 170 172 173 178 172 161 164 175 171 168 185 183 165 161 152 147 154 169 163 29 24 57 77 80 34 342 350 27 25 22 19
254 206 154 147 152 147 143 149 160 143 114 154 181 154 120 244 231 196 168 186 219 212 211 226 224 209 227 239 201 183 183 175 171 175 162 151 152 154 157 161 164 166 165 167 168 166 167 167 168 170 168 169 172 170 172 172 165 159 160 160 156 159 160 156 159 165 171 176 175 172 170 170 172 175 177 177 180 182 178 178 171 158 157 185 219 290 13 162 151 113 18 339 20 51 37 21 14
253 269 151 150 157 150 148 154 159 143 117 132 194 184 162 246 216 168 167 190 213 214 210 213 210 203 205 223 224 192 189 184 176 181 167 154 155 156 159 163 167 169 168 169 168 167 169 170 170 170 168 171 174 172 173 174 168 161 161 162 158 162 168 161 160 166 170 176 177 172 174 181 179 177 186 190 183 186 188 179 180 178 158 157 203 254 251 170 158 144 358 355 40 53 41 27 16
236 247 165 142 148 152 159 165 150 143 138 176 191 185 172 215 193 164 168 200 215 210 206 207 204 199 197 209 225 202 189 187 178 181 172 156 157 159 160 164 168 170 172 170 167 167 169 171 172 172 170 171 175 175 174 174 172 170 170 171 166 165 167 165 165 168 168 173 175 173 180 187 183 182 190 193 188 192 196 188 191 188 171 167 200 267 232 161 149 169 270 332 355 30 55 41 16
259 239 143 135 155 160 166 155 117 132 204 202 184 182 181 184 190 180 186 205 207 199 196 199 198 196 193 197 214 211 190 186 178 179 174 157 158 160 160 166 171 173 174 167 162 165 167 171 172 172 172 172 174 175 175 176 177 177 179 180 176 170 168 167 167 168 168 173 176 175 180 183 184 188 190 193 194 193 195 194 192 185 178 190 201 184 194 194 209 215 233 296 330 354 2 6 11
268 256 145 156 173 158 154 129 110 153 245 204 179 179 186 203 206 197 206 210 195 189 192 191 192 192 189 189 199 211 197 184 178 180 178 158 158 161 163 171 174 173 173 162 158 163 165 169 173 172 173 174 173 174 175 179 180 181 182 182 180 176 173 171 168 168 170 175 178 177 177 178 184 193 195 200 203 196 199 197 188 200 209 204 200 203 220 237 260 224 206 236 317 344 331 332 358
271 282 162 150 139 138 175 163 158 209 250 196 167 168 184 235 225 199 206 208 189 187 191 187 187 186 184 185 188 202 206 183 178 187 186 165 161 163 166 175 174 171 170 159 157 164 165 169 173 172 173 174 174 175 178 183 184 183 181 179 182 180 178 176 174 175 176 178 180 181 185 186 187 193 197 208 212 199 206 207 192 204 218 208 201 207 225 230 239 217 196 205 237 323 353 354 335
237 247 149 121 104 118 218 209 182 225 263 172 151 156 184 244 234 203 200 199 184 183 185 179 183 184 181 181 182 193 205 190 183 187 190 175 165 165 171 177 171 168 166 157 158 165 167 170 174 175 176 176 177 176 178 184 187 187 183 179 183 184 182 181 179 182 185 186 186 188 194 194 193 196 198 209 217 203 209 217 210 207 213 215 212 210 220 223 222 208 193 201 222 234 232 258 308
234 239 122 132 149 151 216 221 188 238 278 138 142 153 236 219 274 245 184 176 165 168 171 168 175 179 177 178 179 187 196 187 169 165 175 193 170 163 172 176 167 167 164 157 160 165 167 171 175 177 178 178 179 177 178 183 186 188 186 181 183 186 186 184 182 187 192 191 190 191 194 194 197 202 198 202 212 209 211 218 219 213 212 222 223 219 220 216 217 214 200 199 207 214 222 232 270
256 253 81 147 174 165 227 264 267 254 314 93 134 160 298 224 329 1 81 127 137 142 147 155 167 171 171 177 179 184 188 167 141 151 146 200 177 165 171 174 165 167 165 157 162 166 168 173 175 177 180 180 179 178 179 185 187 188 189 185 185 187 190 190 188 193 196 191 191 196 195 195 199 204 200 200 209 213 214 216 218 214 213 222 229 226 220 214 226 230 214 213 206 203 231 239 243
261 239 208 245 245 212 221 293 302 302 144 123 125 126 330 326 351 4 38 93 114 117 127 144 160 166 168 179 182 183 182 157 142 160 154 184 190 171 171 179 172 167 161 156 162 168 170 174 174 176 180 180 180 180 181 187 190 190 191 190 190 191 193 193 191 195 198 193 194 201 199 198 201 204 204 204 204 207 210 211 213 211 210 220 231 232 218 209 227 236 221 223 218 212 239 243 237
263 252 192 225 267 270 110 85 318 334 220 216 124 135 170 178 169 339 9 107 123 124 137 138 144 159 168 179 180 175 170 160 160 167 158 183 205 177 173 186 182 167 160 158 163 169 171 174 175 176 178 179 181 181 181 188 193 193 194 195 195 196 196 194 193 195 197 196 197 199 197 199 202 202 203 200 196 199 203 203 206 211 215 220 227 231 220 211 221 229 225 229 227 223 240 245 234
270 286 238 207 236 244 132 139 228 250 244 234 124 136 153 171 185 191 195 181 151 140 155 160 153 158 167 172 171 164 154 160 173 174 171 183 187 163 177 197 185 164 163 165 165 169 171 174 176 177 179 180 181 182 182 187 193 194 195 196 197 199 199 198 197 195 193 196 197 195 196 202 204 201 199 197 196 200 204 204 205 211 219 223 224 225 227 223 223 225 222 228 237 233 240 249 242
254 281 282 246 210 192 165 169 180 193 240 203 122 117 98 255 228 190 199 191 161 162 175 175 167 164 171 167 165 165 156 164 176 174 182 181 173 174 188 202 185 159 164 170 168 170 171 172 176 178 179 181 182 184 184 186 192 195 195 195 196 199 200 200 201 198 195 198 198 193 195 201 204 203 200 200 206 207 206 208 211 212 216 225 227 222 225 227 228 229 222 223 238 240 240 246 248
216 245 282 270 245 187 181 199 194 202 242 183 140 122 337 302 288 214 216 201 167 176 174 173 172 170 177 174 168 170 163 165 171 172 187 175 173 182 186 187 169 147 155 166 168 170 171 172 175 177 178 180 182 185 186 187 189 191 194 196 196 198 199 200 202 202 201 202 200 197 198 204 207 207 203 201 206 207 205 209 214 213 213 222 227 224 224 228 230 231 225 223 232 236 238 241 244
259 202 225 241 230 172 177 249 226 200 234 203 140 127 229 283 300 226 217 196 183 189 153 171 188 173 176 177 173 171 165 167 170 178 200 172 170 179 174 166 155 143 148 159 166 168 169 170 173 176 179 180 182 186 188 187 188 192 195 194 195 198 199 200 202 203 204 203 202 203 206 211 210 208 208 205 205 209 210 212 214 214 215 220 223 222 223 226 230 232 230 228 233 237 243 244 245
Height
784 786 786 787 787 788 790 790 807 810 811 822 818 824 816 791 787 790 791 787 787 781 771 774 774 773 782 795 799 794 795 798 801 814 826 815 808 815 816 818 819 819 820 820 820 821 821 822 822 823 823 823 824 824 825 826 827 828 829 830 830 831 832 832 832 833 833 834 835 836 837 838 838 838 838 839 839 840 840 841 841 842 842 843 844 844 844 845 846 846 846 847 848 849 849 849 850
784 786 785 787 786 791 794 791 812 817 815 825 819 818 803 786 791 794 793 789 786 777 769 772 773 775 780 785 786 790 801 798 789 799 807 807 812 816 816 818 819 819 820 820 820 820 820 821 822 822 822 823 824 825 826 827 828 829 829 830 831 832 832 833 833 834 834 835 836 837 838 838 839 839 839 839 839 840 841 842 842 843 843 844 845 845 845 846 846 847 848 848 849 850 850 850 851
785 787 786 788 787 790 794 796 814 820 822 828 820 809 794 792 796 791 787 782 777 770 770 773 776 780 781 790 792 799 811 802 790 796 804 810 813 815 818 818 819 820 820 820 820 819 820 820 821 822 823 824 824 826 827 828 828 829 830 830 831 832 833 833 833 835 835 836 837 838 838 839 839 839 840 840 840 841 842 843 843 844 845 845 845 846 846 846 847 848 849 849 850 851 851 851 852
785 787 786 787 791 794 798 805 814 819 825 827 819 804 792 795 791 787 782 776 772 768 772 776 784 781 781 799 800 802 812 805 798 798 805 811 812 815 818 818 819 820 820 821 820 820 819 820 821 822 823 824 825 826 826 827 828 829 830 831 831 832 833 833 834 835 836 837 838 839 839 839 840 840 840 840 842 842 843 844 845 845 846 846 846 847 847 847 848 849 850 850 851 851 852 853 853
785 786 785 786 796 800 802 809 812 817 822 821 820 805 790 790 787 785 779 774 772 771 775 778 789 784 782 796 796 805 812 806 803 801 805 811 813 816 817 819 819 820 821 821 820 820 820 820 821 822 824 825 825 825 826 827 828 829 830 831 832 832 833 833 834 835 837 838 838 839 839 840 841 841 841 842 843 843 845 845 846 846 847 847 848 848 848 848 849 850 851 851 852 852 853 853 854
784 785 784 785 793 797 804 814 815 817 814 811 818 805 788 786 784 782 778 776 773 772 775 779 789 790 793 795 793 802 805 803 805 804 806 810 814 816 817 818 819 820 821 820 821 820 821 822 822 824 824 825 825 825 826 827 828 829 830 831 832 833 833 833 835 836 837 838 839 840 840 841 841 842 843 843 844 845 846 846 847 847 848 848 849 849 849 850 850 851 852 853 853 853 854 855 855
784 787 788 791 795 797 810 819 817 817 812 807 810 800 788 784 781 781 782 783 781 777 777 782 785 792 803 799 798 800 798 802 803 806 808 811 814 816 818 818 819 820 821 821 821 821 822 823 823 824 825 825 826 826 827 828 829 829 830 831 832 833 834 834 835 837 838 839 840 840 841 842 842 843 844 845 845 846 847 847 848 848 849 849 849 850 850 851 851 852 853 854 854 854 855 855 856
785 790 792 799 804 804 813 819 815 814 810 805 803 795 786 782 780 782 786 787 788 785 783 785 783 796 808 800 806 805 799 804 804 808 810 811 815 816 818 818 820 821 821 822 822 823 823 824 824 825 825 826 826 827 828 829 830 830 831 832 833 834 834 835 836 838 839 840 840 841 842 843 843 844 845 845 846 847 848 848 849 849 850 850 851 851 851 852 853 853 854 855 855 855 855 856 857
785 790 795 802 810 810 813 817 814 810 807 803 798 791 784 780 780 783 786 786 786 787 787 787 785 800 810 804 811 806 802 808 807 810 811 813 815 816 819 819 820 820 822 822 823 824 824 825 825 826 826 827 827 828 829 829 830 831 832 833 834 834 835 836 837 839 839 840 841 842 844 844 845 845 846 846 847 848 849 849 850 851 851 852 852 852 853 853 854 854 855 856 855 855 856 857 858
787 792 798 805 811 815 817 816 813 809 806 800 793 786 783 780 781 784 787 788 785 788 788 786 790 800 808 810 812 807 806 810 809 813 813 814 815 817 819 819 820 820 822 823 824 825 825 826 826 827 827 827 828 828 829 830 830 831 832 833 834 835 835 837 838 839 840 841 842 844 845 846 847 847 848 848 849 849 850 850 851 852 852 853 853 853 854 854 855 855 856 857 856 856 857 858 859
795 797 799 809 814 819 820 818 814 810 804 798 791 782 781 779 782 786 786 789 786 789 791 789 799 802 805 812 812 807 807 810 810 813 814 815 816 817 818 819 821 821 822 823 824 826 826 827 827 827 827 828 829 829 830 830 831 831 832 833 834 835 836 837 838 840 841 841 842 844 845 846 848 848 849 849 850 851 851 851 852 853 853 854 854 854 855 855 856 856 857 857 857 857 858 859 859
802 804 803 813 817 819 817 817 817 812 806 801 794 785 781 780 787 790 789 791 788 793 793 792 800 800 809 816 811 807 807 810 811 812 814 815 816 817 819 820 822 822 823 823 825 826 826 827 827 828 828 829 829 830 830 830 831 831 832 833 834 835 836 837 839 840 841 842 842 843 845 846 847 848 849 850 851 851 851 852 853 854 854 855 855 855 856 856 857 857 858 858 858 858 858 859 860
800 804 806 815 814 816 816 816 819 816 811 804 799 791 783 788 795 793 792 792 790 797 794 789 793 797 811 815 808 806 808 810 811 813 815 815 817 818 820 821 822 823 823 824 825 826 826 826 827 828 828 829 829 830 830 831 831 831 832 833 834 835 836 838 838 840 842 843 843 844 845 846 847 848 849 850 851 852 852 853 854 855 855 856 856 856 857 857 857 858 859 859 859 859 859 860 860
794 797 803 813 812 814 817 819 821 820 817 804 798 793 787 795 796 793 796 797 794 794 789 784 787 799 811 813 812 810 808 809 810 813 814 816 818 818 820 822 823 824 824 825 826 826 826 826 826 827 828 829 829 830 830 831 831 832 832 833 835 836 837 838 838 840 842 844 844 845 846 847 848 849 850 851 852 853 853 854 855 856 856 857 857 857 858 858 858 859 859 860 859 860 860 860 861
790 794 799 812 814 815 817 820 820 819 815 802 797 793 791 794 792 795 798 799 796 783 781 784 785 799 810 812 815 809 805 808 809 812 814 816 818 819 821 822 823 823 825 826 826 827 826 826 826 827 828 828 829 829 830 831 832 832 832 834 835 837 839 838 838 841 843 844 845 846 847 847 849 849 850 851 852 853 854 855 856 857 858 858 858 858 858 859 859 860 860 860 861 861 861 861 862
787 793 806 817 816 818 817 816 819 819 812 801 796 793 796 794 789 799 792 788 792 779 782 790 786 794 803 806 807 802 804 807 808 812 813 817 819 820 822 823 824 824 825 826 826 827 827 827 827 828 829 829 830 830 830 831 832 833 833 835 836 838 839 839 840 843 843 844 846 846 846 848 849 850 851 852 853 854 855 856 857 858 859 859 859 859 859 860 861 861 861 862 862 862 862 862 862
784 794 811 818 814 817 815 812 816 814 807 801 797 794 800 797 791 793 783 783 791 784 785 788 785 789 794 799 800 800 804 806 808 811 813 817 819 820 823 824 824 824 826 826 827 827 827 828 828 829 829 830 831 830 831 832 833 833 834 836 837 839 840 841 842 844 844 845 847 847 847 848 849 851 852 853 854 855 857 857 858 859 859 860 860 860 861 861 862 862 862 862 863 863 863 863 863
788 799 809 814 813 811 805 804 804 801 802 802 799 796 798 799 795 788 785 790 791 787 787 786 787 789 791 796 799 802 804 806 807 810 814 817 819 820 822 824 825 825 826 827 828 828 828 829 830 830 831 831 832 832 832 832 833 834 835 837 838 840 841 842 843 844 845 846 848 848 848 849 850 852 853 854 855 856 858 859 859 860 860 861 861 862 862 862 863 863 863 863 863 863 863 863 863
787 796 805 808 806 800 792 794 795 794 799 799 797 795 795 797 793 787 792 796 791 793 793 790 794 794 795 797 800 804 804 806 808 809 813 816 819 820 821 824 825 826 825 827 828 829 829 830 831 831 831 832 833 833 833 833 834 835 837 838 839 840 842 843 844 845 846 847 848 849 850 850 851 853 854 855 856 857 859 859 860 861 861 862 862 862 863 863 863 863 864 864 864 864 864 864 864
786 792 803 801 794 794 788 788 790 788 793 797 797 794 795 795 789 788 795 797 794 797 796 796 801 800 799 799 800 804 805 807 809 810 812 815 818 819 821 823 825 826 826 827 828 829 830 830 832 832 832 833 833 833 834 835 835 836 838 839 840 841 842 844 845 846 847 848 849 850 851 852 853 854 855 856 857 858 859 860 861 861 862 862 863 863 863 864 864 864 864 864 864 864 864 864 864
791 792 797 792 786 794 789 784 786 786 790 795 795 795 797 792 787 790 794 799 801 796 793 794 799 800 799 800 801 803 805 808 809 810 812 814 817 819 820 822 824 825 826 828 829 829 830 831 833 833 833 834 834 835 835 836 837 838 839 840 841 842 843 845 846 847 848 849 850 851 852 853 854 855 856 857 858 859 860 860 861 862 862 863 863 864 864 864 864 865 865 865 865 864 864 864 865
790 790 786 782 782 792 789 782 783 785 788 792 795 797 796 790 790 794 795 802 801 792 790 790 792 796 797 799 801 803 806 807 808 810 811 814 816 819 821 822 824 825 826 828 828 830 831 832 834 834 835 835 835 836 836 837 838 839 841 842 842 843 845 846 847 848 849 851 851 852 853 854 855 856 857 858 859 860 860 861 861 862 863 863 864 864 865 865 865 865 865 865 865 865 864 864 864
785 790 782 778 780 788 788 783 783 785 789 795 796 793 791 794 797 795 794 798 793 784 785 788 790 793 796 798 801 803 806 807 808 810 811 813 816 819 821 822 824 825 826 827 829 830 831 833 835 835 835 836 836 837 837 838 839 841 842 843 844 844 845 847 848 849 850 851 853 854 854 855 856 857 858 859 860 861 861 862 862 863 863 864 865 865 865 865 865 865 865 865 865 865 864 863 864
783 792 785 781 782 786 787 784 785 786 792 794 790 790 794 799 799 796 793 791 788 783 782 788 791 793 796 799 801 803 805 806 808 810 810 812 815 818 820 822 824 825 826 828 829 830 832 833 835 836 836 837 837 838 839 840 841 841 843 844 845 846 846 847 849 850 851 852 853 854 855 856 857 857 858 859 860 861 862 862 863 864 864 865 865 865 865 865 865 865 865 865 864 865 863 863 864
782 789 787 784 785 786 787 786 787 789 791 791 789 794 797 795 795 797 794 788 786 783 783 788 791 794 797 799 802 803 804 806 807 809 810 811 815 818 821 822 824 825 826 827 829 830 832 834 835 837 837 838 839 839 840 841 842 842 843 845 846 847 848 848 849 850 852 853 854 855 856 856 857 858 859 860 861 862 862 863 864 864 865 865 866 866 865 866 866 865 865 865 865 865 864 864 865
780 783 787 787 789 788 789 790 789 791 791 791 795 800 797 791 794 799 793 786 786 783 786 790 792 797 799 800 801 802 803 804 806 808 809 811 815 819 821 823 824 825 827 828 829 830 832 834 836 837 837 838 839 840 841 842 843 843 844 846 847 848 849 850 850 851 852 854 855 856 857 857 858 859 860 861 861 862 863 864 864 865 866 866 866 866 866 866 866 866 865 865 864 865 865 865 865
775 780 788 789 791 789 790 793 792 792 793 793 798 803 798 791 797 804 793 784 785 785 789 791 793 798 799 799 800 800 802 803 805 807 808 812 815 818 821 823 825 825 827 828 830 830 832 834 836 837 838 839 839 841 842 843 844 844 845 846 847 849 850 851 851 852 853 854 856 857 858 858 859 859 860 861 862 863 863 864 865 865 866 866 867 866 867 867 867 867 866 865 865 864 864 865 865
773 780 790 793 793 794 794 796 795 795 796 794 795 801 800 796 800 802 791 784 785 788 793 793 795 798 797 799 799 799 801 802 804 806 808 811 814 817 820 822 824 826 827 828 830 831 832 834 836 838 839 840 840 841 842 844 845 845 846 847 848 850 851 852 852 853 854 855 856 857 858 859 860 861 861 862 863 863 864 865 865 866 866 867 867 867 867 867 867 867 866 865 865 864 864 864 865
774 778 793 802 798 801 802 799 799 800 800 793 793 806 810 804 802 795 786 784 785 789 794 794 795 797 797 799 799 799 800 801 803 806 808 810 812 815 819 822 823 825 827 828 830 831 833 834 836 837 839 840 841 842 843 844 845 846 847 848 849 850 851 852 853 854 855 856 857 858 859 860 861 862 862 863 864 864 864 865 866 866 867 867 867 867 867 868 867 867 866 865 865 865 864 864 864
778 781 793 806 808 811 805 800 803 804 805 795 797 821 825 810 799 791 785 784 787 793 796 795 796 796 798 799 799 800 800 801 803 805 808 810 812 814 818 821 823 825 826 828 830 831 833 834 835 837 839 841 842 843 843 844 845 846 848 848 850 851 852 853 854 855 856 857 858 859 860 861 862 862 863 864 864 865 865 866 866 866 867 867 868 868 868 868 868 867 867 866 865 865 864 863 863
781 789 795 803 815 818 805 802 808 809 808 798 802 826 829 812 800 791 785 785 789 796 797 795 797 797 799 800 800 802 800 802 804 805 808 809 811 813 817 821 823 825 827 828 830 831 833 834 836 837 839 841 842 843 843 844 845 846 848 849 850 852 853 854 854 855 857 857 859 860 861 861 862 863 864 864 864 865 866 866 867 867 867 868 868 868 868 868 868 868 867 867 866 865 864 863 863
781 796 807 805 811 819 809 803 808 809 806 800 807 825 826 813 802 792 786 787 790 796 797 796 797 798 800 801 801 803 802 801 804 806 808 809 811 813 816 820 823 825 826 828 830 831 833 834 836 837 839 841 842 843 844 845 846 847 848 849 851 852 853 854 855 856 857 858 859 860 861 862 862 863 864 864 865 865 866 867 867 867 868 868 869 869 869 869 868 868 868 867 866 865 864 863 863
783 790 804 806 811 821 816 807 802 803 805 805 811 823 826 813 802 795 789 789 792 796 797 796 797 798 800 801 801 803 804 803 804 806 807 808 811 813 815 819 823 825 827 828 830 832 833 834 836 837 838 840 841 843 844 845 846 847 848 849 851 852 853 854 855 856 857 858 859 860 861 862 863 864 864 865 865 866 867 867 868 868 869 869 869 869 869 869 869 868 868 868 867 866 865 864 864
786 785 795 806 813 819 820 814 804 801 807 810 812 817 819 811 802 799 793 791 795 798 798 797 797 799 800 800 801 803 805 805 805 806 807 808 811 813 815 818 822 825 827 828 830 832 834 835 836 837 838 840 841 843 844 846 846 847 849 850 851 852 854 855 855 856 857 858 859 860 861 862 863 864 865 865 866 866 867 868 868 869 869 870 870 870 869 869 869 869 868 868 867 866 865 865 864
783 789 800 814 818 817 818 814 804 803 809 812 816 818 815 809 804 802 797 793 797 799 797 797 797 798 800 800 802 804 805 806 805 805 806 808 811 813 815 818 822 824 827 829 830 832 834 836 837 838 839 840 841 843 844 846 847 848 849 850 851 852 854 855 856 857 857 859 859 860 861 862 863 864 865 865 866 867 867 868 869 869 870 870 870 870 869 869 869 869 869 868 867 867 866 865 865
773 784 796 811 818 816 811 806 800 801 810 814 816 818 815 811 808 805 801 796 799 800 797 798 798 798 800 801 802 803 805 805 803 804 806 808 811 813 815 818 821 824 826 828 830 832 833 835 837 838 840 840 842 843 844 846 847 848 849 850 851 852 854 855 857 857 858 859 859 861 862 862 863 864 865 866 866 867 868 869 869 870 870 870 870 870 870 869 869 869 869 868 868 866 866 865 864
767 779 789 800 811 811 804 804 805 803 812 818 815 815 815 813 810 806 804 801 801 803 801 800 800 800 800 801 802 803 804 803 801 804 805 808 811 813 815 818 821 823 826 828 829 831 833 835 837 838 840 841 842 843 844 846 847 848 849 850 852 853 854 855 856 858 858 859 860 861 862 862 863 864 865 866 867 867 868 869 869 870 870 870 870 870 870 870 869 870 869 868 868 867 866 865 864
766 779 788 796 805 806 802 805 808 804 812 820 817 819 818 812 811 807 805 807 806 805 805 803 801 800 800 800 802 802 802 800 800 803 805 808 811 813 815 818 820 822 825 827 829 831 833 835 837 838 840 841 842 843 844 846 847 848 849 850 852 853 854 855 856 858 858 859 860 861 862 863 864 865 866 866 867 867 868 869 869 870 870 870 870 870 871 871 870 870 869 868 868 867 866 865 865
768 781 788 797 801 804 808 806 804 803 812 821 822 826 823 814 812 809 808 810 807 804 805 804 802 800 800 801 801 801 802 801 801 803 804 807 810 812 816 818 820 822 824 827 829 831 833 834 836 838 840 841 842 844 845 846 847 848 850 851 852 853 855 856 857 858 859 859 860 861 862 863 864 865 866 867 867 868 868 869 869 870 870 871 871 871 871 871 870 870 870 869 868 868 866 865 865
769 781 786 794 795 800 815 815 809 807 811 818 822 826 826 821 817 814 813 813 807 804 807 806 803 800 800 799 798 799 801 802 802 802 803 806 809 812 815 817 819 822 824 826 828 831 832 834 836 837 840 841 842 844 845 846 847 848 850 851 852 853 855 856 857 858 859 860 861 862 862 863 864 865 866 867 867 868 869 869 869 870 870 871 871 871 871 871 871 870 870 870 869 868 867 866 866
765 770 778 789 789 788 801 810 811 812 814 815 819 831 833 827 827 823 816 815 810 807 810 811 805 800 798 797 796 797 798 800 801 802 802 804 808 811 815 817 819 821 823 825 827 830 831 833 835 837 839 841 842 843 844 845 847 848 850 851 853 854 855 856 857 858 859 860 861 861 862 863 864 865 866 867 867 868 868 869 869 870 870 871 871 871 871 871 871 871 870 870 869 869 868 867 866
764 760 763 774 779 781 791 801 810 824 829 817 816 837 841 827 826 825 817 816 813 811 814 814 808 802 799 799 798 796 796 797 798 800 801 803 807 810 814 816 818 820 822 824 826 828 831 832 834 836 838 840 841 843 844 845 847 848 849 851 852 853 855 856 857 858 858 859 860 861 862 863 864 865 866 867 867 867 868 869 869 870 870 871 872 872 871 871 871 870 870 870 870 869 869 867 867
768 756 751 762 771 779 791 798 807 823 827 812 807 828 841 832 824 818 815 816 815 813 815 812 808 804 801 800 798 796 797 796 797 798 799 802 805 809 812 815 817 820 821 824 826 828 830 832 834 836 837 838 840 842 843 845 846 848 849 851 852 853 854 856 857 858 858 859 860 861 862 863 864 865 865 866 867 867 868 868 869 870 871 871 872 872 871 871 871 870 870 870 870 870 869 868 868
765 745 746 762 768 778 787 792 802 808 810 812 808 815 834 836 822 812 813 818 818 815 813 810 806 804 802 800 797 796 796 796 796 798 798 800 804 807 810 814 816 818 821 823 825 827 829 831 833 835 836 838 839 841 843 844 846 847 849 851 852 853 854 855 857 858 859 859 860 861 862 863 864 864 865 866 866 867 867 868 869 870 870 871 871 871 871 871 871 871 871 871 870 870 869 869 869
755 738 744 756 761 775 781 785 796 796 808 829 819 810 830 834 814 807 813 819 820 814 809 806 803 802 801 800 797 795 794 794 794 796 797 799 802 805 809 812 815 817 820 822 823 825 828 830 832 834 836 837 839 841 842 844 846 847 849 850 852 853 854 855 856 857 859 859 860 861 862 863 864 864 865 865 866 867 867 868 869 869 870 871 871 871 871 871 871 871 871 871 871 870 870 869 869
743 733 743 752 757 769 775 782 790 794 813 830 816 805 824 830 815 812 818 818 814 807 802 800 799 799 799 799 797 795 793 793 793 794 795 797 800 804 808 811 814 816 818 821 822 824 827 829 831 834 835 837 839 840 842 843 845 846 848 850 851 853 854 855 856 857 858 859 860 861 862 862 863 864 865 865 866 866 867 868 868 869 869 870 871 871 871 871 871 872 871 871 871 870 870 869 869
736 735 749 763 766 768 774 778 785 805 819 813 800 796 809 823 820 811 807 800 793 794 797 797 795 795 797 797 797 795 793 793 792 793 794 796 799 802 806 810 812 815 817 819 821 824 826 828 830 832 834 837 838 840 841 843 844 846 847 849 851 852 853 854 855 856 857 858 859 860 861 862 863 864 864 865 866 866 867 868 868 869 869 869 870 870 871 871 871 872 872 871 871 870 870 870 870
736 742 754 770 776 776 785 788 795 819 820 794 784 788 798 816 813 797 788 778 775 783 788 790 791 792 793 794 795 794 793 792 792 793 794 795 798 801 804 808 810 813 815 817 820 823 825 827 829 831 834 836 838 839 841 842 843 845 846 848 850 851 852 853 854 855 856 857 858 860 860 861 862 863 864 864 865 866 867 867 868 868 869 869 870 870 871 871 872 872 872 872 872 871 871 871 871
743 750 758 776 788 793 802 804 807 815 798 773 774 787 800 804 789 778 777 771 770 773 774 779 783 786 790 792 793 792 791 791 791 792 793 794 797 799 802 806 808 811 813 816 818 821 824 826 828 830 833 834 836 839 840 842 843 844 846 847 849 850 851 853 854 855 856 856 857 859 859 860 861 862 863 863 864 865 866 867 867 868 868 869 869 870 870 871 871 872 872 872 872 872 872 872 872
751 757 764 779 794 808 814 805 801 801 782 764 767 784 801 796 775 764 765 764 764 765 767 772 776 780 785 787 790 790 790 790 790 791 793 793 795 798 800 804 806 808 811 814 817 820 823 825 827 829 832 834 835 837 839 841 842 844 845 847 848 849 851 852 853 854 855 856 857 858 859 859 860 861 862 862 863 864 865 866 867 868 868 869 869 870 870 871 871 872 872 873 873 873 873 873 872
750 746 752 769 780 798 810 800 797 796 780 767 772 789 802 797 777 760 755 757 760 763 765 768 773 777 780 783 786 788 789 789 789 791 793 793 793 796 799 802 804 807 809 813 816 819 822 824 826 828 830 833 834 836 838 840 842 843 845 846 847 849 850 851 853 854 855 855 856 857 858 859 860 860 861 862 862 863 864 865 866 867 868 869 869 870 870 871 871 872 872 873 873 873 873 873 873
749 736 750 766 763 771 786 784 779 780 780 779 786 798 795 783 771 758 756 761 762 764 766 768 773 776 777 782 784 785 787 788 788 789 792 793 793 794 797 800 802 805 808 811 814 817 820 823 825 827 829 831 833 835 837 839 841 843 844 846 847 848 850 851 852 853 854 854 855 856 857 858 859 860 860 861 862 863 863 864 865 867 867 868 869 869 870 871 871 872 872 872 873 873 873 873 873
752 747 758 755 743 751 774 780 768 770 788 789 789 801 793 780 777 768 764 770 770 770 770 770 773 774 778 782 781 782 785 786 787 787 789 792 792 793 797 799 801 804 806 809 812 815 818 821 824 826 828 831 833 834 836 838 839 842 843 844 846 847 848 850 850 852 853 854 855 856 857 857 858 859 860 860 861 862 863 864 865 866 866 867 868 869 869 870 871 871 872 872 872 873 873 873 873
754 761 755 742 741 749 766 786 787 787 798 788 784 802 802 795 793 781 773 777 777 776 774 772 773 774 778 780 779 781 782 783 784 784 786 789 791 793 796 798 799 802 804 807 811 814 816 819 822 825 827 829 832 833 835 837 838 840 842 843 845 846 847 848 849 851 852 853 854 855 856 856 857 858 859 859 860 861 862 863 864 865 866 866 867 868 869 869 870 871 871 872 872 872 873 873 873
744 751 740 743 766 771 769 785 796 802 802 789 788 799 797 793 790 782 780 778 777 777 774 774 775 775 777 778 779 781 781 781 782 782 785 787 790 794 796 799 798 799 803 806 809 813 815 818 820 823 826 827 830 832 834 836 837 839 841 842 843 844 845 847 848 849 850 851 853 853 854 855 856 857 858 858 859 860 861 862 863 864 865 865 866 867 868 868 869 870 870 871 871 872 872 872 872
738 742 739 743 757 764 767 772 779 792 797 793 801 807 798 789 781 778 778 771 771 775 772 771 773 774 775 776 778 780 780 781 781 782 784 785 789 793 797 800 798 797 801 805 808 812 813 817 819 821 825 826 829 831 833 835 836 838 839 841 842 843 844 845 847 848 849 850 851 852 852 854 855 856 856 857 858 859 860 861 862 863 864 865 865 866 867 868 868 869 869 870 871 871 871 871 872
750 754 756 752 748 750 758 762 761 772 785 789 802 817 809 788 775 774 772 767 768 770 769 770 770 771 773 773 775 778 779 781 781 781 783 784 787 790 795 799 797 796 800 804 807 810 812 815 818 820 823 825 827 829 831 833 835 837 838 839 841 842 843 844 845 847 848 849 850 850 851 853 853 854 855 856 857 858 859 860 861 862 863 864 865 865 866 867 867 868 869 869 870 870 870 870 871
750 755 755 754 752 754 767 775 761 755 768 772 786 817 815 786 772 770 765 766 769 768 769 770 768 768 771 771 773 775 778 781 782 782 782 783 784 787 792 795 795 795 798 803 806 809 811 813 816 818 820 822 825 827 829 831 833 835 836 837 839 841 842 843 844 846 847 848 849 849 850 851 852 853 854 855 856 857 858 859 860 861 862 863 863 864 865 866 867 867 868 868 869 869 869 869 870